DAL1279 KRDU-KTPA

Flight info

Callsign DAL1279
Flight time N/A
Altitude 36000
Route HOOKZ5 DAWTS MRPIT Q409 PUPYY BAAMF DADES2
Aircraft B738/M-SDE2E3FGHIRWXY/LB1

Departure

Time 2026-05-01 15:14
Airport Raleigh-Durham International Airport (KRDU)

Arrival

Time N/A
Airport Tampa International Airport (KTPA)
Time Latitude Longitude Altitude Speed Heading
2026-05-01 14:58 35.87784 -78.79383 386 ft 0 kts 135°
2026-05-01 15:07 35.87785 -78.79384 386 ft 2 kts 135°
2026-05-01 15:07 35.87797 -78.79399 386 ft 2 kts 134°
2026-05-01 15:07 35.87808 -78.79413 386 ft 2 kts 134°
2026-05-01 15:08 35.87820 -78.79427 386 ft 2 kts 150°
2026-05-01 15:08 35.87834 -78.79432 386 ft 1 kts 213°
2026-05-01 15:08 35.87840 -78.79426 387 ft 1 kts 228°
2026-05-01 15:08 35.87841 -78.79426 387 ft 0 kts 228°
2026-05-01 15:09 35.87840 -78.79427 387 ft 2 kts 228°
2026-05-01 15:10 35.87792 -78.79478 384 ft 15 kts 217°
2026-05-01 15:10 35.87590 -78.79718 377 ft 25 kts 226°
2026-05-01 15:10 35.87477 -78.79860 375 ft 22 kts 224°
2026-05-01 15:11 35.87369 -78.79990 374 ft 18 kts 225°
2026-05-01 15:11 35.87372 -78.80083 375 ft 7 kts 313°
2026-05-01 15:11 35.87407 -78.80127 376 ft 7 kts 316°
2026-05-01 15:12 35.87449 -78.80153 376 ft 7 kts 355°
2026-05-01 15:12 35.87490 -78.80134 375 ft 0 kts 43°
2026-05-01 15:13 35.87872 -78.79668 385 ft 109 kts 45°
2026-05-01 15:14 35.89419 -78.77844 1353 ft 171 kts 43°
2026-05-01 15:14 35.90302 -78.76866 2425 ft 172 kts 45°
2026-05-01 15:14 35.91334 -78.74173 3765 ft 198 kts 99°
2026-05-01 15:15 35.89232 -78.71774 4548 ft 235 kts 177°
2026-05-01 15:15 35.85775 -78.72275 5731 ft 264 kts 191°
2026-05-01 15:16 35.82118 -78.73007 7425 ft 270 kts 192°
2026-05-01 15:16 35.78367 -78.73714 9079 ft 276 kts 193°
2026-05-01 15:17 35.74512 -78.74415 10535 ft 291 kts 194°
2026-05-01 15:18 35.67750 -78.75634 11138 ft 359 kts 193°
2026-05-01 15:18 35.65249 -78.76068 11702 ft 366 kts 193°
2026-05-01 15:19 35.57570 -78.77383 13806 ft 377 kts 194°
2026-05-01 15:19 35.52336 -78.78283 15091 ft 382 kts 194°
2026-05-01 15:19 35.49696 -78.78738 15736 ft 384 kts 194°
2026-05-01 15:20 35.44401 -78.79651 17018 ft 389 kts 195°
2026-05-01 15:20 35.41712 -78.80115 17635 ft 392 kts 195°
2026-05-01 15:20 35.38991 -78.80585 18221 ft 396 kts 195°
2026-05-01 15:21 35.36252 -78.81056 18735 ft 399 kts 195°
2026-05-01 15:21 35.33491 -78.81531 19201 ft 402 kts 196°
2026-05-01 15:21 35.30710 -78.82010 19664 ft 405 kts 196°
2026-05-01 15:21 35.27907 -78.82492 20145 ft 408 kts 197°
2026-05-01 15:22 35.22244 -78.83463 21057 ft 413 kts 197°
2026-05-01 15:22 35.20357 -78.83786 21347 ft 415 kts 197°
2026-05-01 15:22 35.17489 -78.84277 21764 ft 418 kts 198°
2026-05-01 15:23 35.13654 -78.84933 22303 ft 421 kts 198°
2026-05-01 15:23 35.10742 -78.85431 22727 ft 423 kts 198°
2026-05-01 15:23 35.08757 -78.85770 22978 ft 425 kts 198°
2026-05-01 15:23 35.04871 -78.86433 23482 ft 428 kts 198°
2026-05-01 15:24 35.01906 -78.86939 23818 ft 431 kts 198°
2026-05-01 15:24 34.98931 -78.87449 24097 ft 432 kts 199°
2026-05-01 15:24 34.95986 -78.88128 24382 ft 429 kts 202°
2026-05-01 15:24 34.93076 -78.88934 24665 ft 429 kts 204°
2026-05-01 15:25 34.90155 -78.89787 24941 ft 431 kts 204°
2026-05-01 15:25 34.88223 -78.90355 25117 ft 432 kts 204°
2026-05-01 15:25 34.85294 -78.91210 25376 ft 435 kts 204°
2026-05-01 15:25 34.82336 -78.92060 25632 ft 437 kts 204°
2026-05-01 15:26 34.78400 -78.93175 25947 ft 440 kts 204°
2026-05-01 15:26 34.75410 -78.94014 26231 ft 442 kts 204°
2026-05-01 15:26 34.73382 -78.94581 26425 ft 443 kts 204°
2026-05-01 15:26 34.69388 -78.95696 26780 ft 446 kts 204°
2026-05-01 15:27 34.67338 -78.96268 26950 ft 448 kts 204°
2026-05-01 15:27 34.64289 -78.97118 27188 ft 450 kts 204°
2026-05-01 15:27 34.61235 -78.97969 27431 ft 451 kts 204°
2026-05-01 15:28 34.55130 -78.99668 27898 ft 454 kts 204°
2026-05-01 15:28 34.52047 -79.00525 28162 ft 455 kts 204°
2026-05-01 15:28 34.48962 -79.01381 28493 ft 454 kts 204°
2026-05-01 15:29 34.43086 -79.03653 29191 ft 432 kts 216°
2026-05-01 15:29 34.40483 -79.05376 29525 ft 420 kts 224°
2026-05-01 15:29 34.35797 -79.09461 30244 ft 413 kts 226°
2026-05-01 15:30 34.31125 -79.13504 30836 ft 412 kts 226°
2026-05-01 15:31 34.22029 -79.21708 32041 ft 403 kts 230°
2026-05-01 15:31 34.17710 -79.26007 32609 ft 401 kts 230°
2026-05-01 15:32 34.13399 -79.30277 33140 ft 401 kts 230°
2026-05-01 15:32 34.09083 -79.34522 33665 ft 400 kts 230°
2026-05-01 15:33 34.02613 -79.40860 34379 ft 399 kts 231°
2026-05-01 15:34 33.96185 -79.47144 35025 ft 397 kts 231°